TimePST,TemperatureF,Dew PointF,Humidity,Sea Level PressureIn,VisibilityMPH,Wind Direction,Wind SpeedMPH,Gust SpeedMPH,PrecipitationIn,Events,Conditions,WindDirDegrees,DateUTC
12:53 AM,50.0,48.0,93,30.28,9.0,South,8.1,-,N/A,,Clear,170,2012-11-05 08:53:00
1:53 AM,51.1,46.9,86,30.28,10.0,South,5.8,-,N/A,,Clear,170,2012-11-05 09:53:00
2:53 AM,48.9,46.9,93,30.27,10.0,SSE,9.2,-,N/A,,Clear,160,2012-11-05 10:53:00
4:53 AM,50.0,46.0,86,30.25,10.0,South,6.9,-,N/A,,Clear,170,2012-11-05 12:53:00
5:53 AM,50.0,46.0,86,30.25,10.0,South,5.8,-,N/A,,Clear,170,2012-11-05 13:53:00
6:53 AM,51.1,45.0,80,30.26,9.0,SSE,4.6,-,N/A,,Clear,160,2012-11-05 14:53:00
7:53 AM,55.0,48.0,77,30.27,10.0,SSW,6.9,-,N/A,,Clear,200,2012-11-05 15:53:00
8:53 AM,60.1,50.0,69,30.27,9.0,Calm,Calm,-,N/A,,Clear,0,2012-11-05 16:53:00
9:53 AM,66.0,50.0,56,30.27,8.0,Calm,Calm,-,N/A,,Clear,0,2012-11-05 17:53:00
10:53 AM,68.0,50.0,52,30.27,8.0,Calm,Calm,-,N/A,,Clear,0,2012-11-05 18:53:00
11:53 AM,69.1,51.1,53,30.25,10.0,WNW,8.1,-,N/A,,Partly Cloudy,290,2012-11-05 19:53:00
12:53 PM,69.1,52.0,54,30.24,10.0,West,8.1,-,N/A,,Mostly Cloudy,260,2012-11-05 20:53:00
1:53 PM,69.1,53.1,57,30.23,10.0,West,9.2,-,N/A,,Clear,280,2012-11-05 21:53:00
2:53 PM,69.1,53.1,57,30.22,10.0,West,8.1,-,N/A,,Clear,270,2012-11-05 22:53:00
3:53 PM,66.0,55.0,68,30.22,10.0,West,8.1,-,N/A,,Clear,280,2012-11-05 23:53:00
4:53 PM,62.1,54.0,75,30.21,10.0,NW,5.8,-,N/A,,Clear,320,2012-11-06 00:53:00
5:53 PM,57.0,52.0,83,30.21,10.0,NNE,3.5,-,N/A,,Clear,20,2012-11-06 01:53:00
6:53 PM,57.9,53.1,84,30.20,10.0,SE,4.6,-,N/A,,Clear,130,2012-11-06 02:53:00
7:53 PM,53.1,50.0,89,30.19,10.0,East,5.8,-,N/A,,Clear,100,2012-11-06 03:53:00
8:53 PM,51.1,48.9,92,30.18,10.0,ESE,4.6,-,N/A,,Clear,120,2012-11-06 04:53:00
9:53 PM,50.0,48.9,96,30.16,10.0,ESE,5.8,-,N/A,,Clear,110,2012-11-06 05:53:00
10:53 PM,51.1,48.9,92,30.14,10.0,SE,6.9,-,N/A,,Clear,140,2012-11-06 06:53:00
11:53 PM,48.0,48.0,100,30.14,10.0,South,4.6,-,N/A,,Clear,170,2012-11-06 07:53:00